Weather History for Jackson, MS

Change the Weather History Date:

Saturday, January 19, 2013

  Actual Average Record
Temperature  
Mean Temperature 45 °F 46 °F  
Max Temperature 61 °F 56 °F 81 °F (1972)
Min Temperature 29 °F 35 °F 6 °F (1977)
Degree Days  
Heating Degree Days 20 20  
Month to date heating degree days 334 380  
Since 1 July heating degree days 1195 1330  
Cooling Degree Days 0 0  
Month to date cooling degree days 8 0  
Year to date cooling degree days 8 0  
Moisture  
Dew Point 35 °F    
Average Humidity 70    
Maximum Humidity 93    
Minimum Humidity 46    
Precipitation  
Precipitation 0.00 in 0.17 in 3.42 in (1979)
Month to date precipitation 7.49 2.90  
Year to date precipitation 7.49 2.90  
Sea Level Pressure  
Sea Level Pressure 30.32 in    
Wind  
Wind Speed 2 mph (South)    
Max Wind Speed 13 mph    
Max Gust Speed 16 mph    
Visibility 10 miles    
Events      
T = Trace of Precipitation, MM = Missing Value Source: NWS Daily Summary

Daily Weather History Graph

Daily Weather History Graph

Search for Another Location

Airport:

Trip Planner

Search our weather history database for the weather conditions in past years. The results will help you decide how hot, cold, wet, or windy it might be!

Date:

Astronomy

Jan. 19, 2013 Rise Set
Actual Time 7:00 AM CST 5:21 PM CST
Civil Twilight 6:34 AM CST 5:48 PM CST
Nautical Twilight 6:04 AM CST 6:18 PM CST
Astronomical Twilight 5:35 AM CST 6:47 PM CST
Moon 11:44 AM CST (1/19) 12:40 AM CST (1/19)
Length of Visible Light 11h 13m
Length of Day
10h 21m
First Quarter, 57% of the Moon is Illuminated
Jan 19
First Quarter
Jan 26
Full
Feb 3
Last Quarter
Feb 10
New
Feb 17
First Quarter

Hourly Weather History & Observations

Time (CST) Temp. Dew Point Humidity Pressure Visibility Wind Dir Wind Speed Gust Speed Precip Events Conditions
12:54 AM 34.0 °F 28.0 °F 79% 30.40 in 10.0 mi Calm Calm - N/A   Clear
1:54 AM 34.0 °F 28.9 °F 82% 30.39 in 10.0 mi Calm Calm - N/A   Clear
2:54 AM 33.1 °F 28.9 °F 85% 30.39 in 10.0 mi Calm Calm - N/A   Clear
3:54 AM 30.0 °F 27.0 °F 88% 30.38 in 10.0 mi Calm Calm - N/A   Clear
4:54 AM 30.9 °F 27.0 °F 85% 30.38 in 10.0 mi Calm Calm - N/A   Clear
5:54 AM 30.2 °F 26.6 °F 86% 30.37 in 10.0 mi Calm Calm - N/A   Clear
6:54 AM 30.9 °F 28.0 °F 89% 30.38 in 10.0 mi Calm Calm - N/A   Clear
7:54 AM 34.0 °F 30.0 °F 85% 30.38 in 10.0 mi Calm Calm - N/A   Clear
8:54 AM 42.1 °F 36.0 °F 79% 30.39 in 10.0 mi Calm Calm - N/A   Clear
9:54 AM 48.9 °F 36.0 °F 61% 30.39 in 10.0 mi South 9.2 mph - N/A   Clear
10:54 AM 53.1 °F 36.0 °F 52% 30.38 in 10.0 mi South 6.9 mph - N/A   Clear
11:54 AM 55.9 °F 37.9 °F 51% 30.34 in 10.0 mi South 6.9 mph - N/A   Clear
12:54 PM 57.0 °F 41.0 °F 55% 30.30 in 10.0 mi WSW 10.4 mph - N/A   Clear
1:54 PM 57.9 °F 39.0 °F 49% 30.27 in 10.0 mi Variable 3.5 mph - N/A   Clear
2:54 PM 60.1 °F 39.0 °F 46% 30.25 in 10.0 mi Calm Calm - N/A   Clear
3:54 PM 59.0 °F 41.0 °F 51% 30.25 in 10.0 mi South 3.5 mph - N/A   Clear
4:54 PM 55.9 °F 39.9 °F 55% 30.25 in 10.0 mi South 5.8 mph - N/A   Clear
5:54 PM 48.0 °F 39.9 °F 74% 30.26 in 10.0 mi SSE 4.6 mph - N/A   Clear
6:54 PM 46.0 °F 39.9 °F 79% 30.26 in 10.0 mi Calm Calm - N/A   Clear
7:54 PM 44.1 °F 39.9 °F 85% 30.27 in 10.0 mi Calm Calm - N/A   Clear
8:54 PM 43.0 °F 39.0 °F 86% 30.26 in 10.0 mi Calm Calm - N/A   Clear
9:54 PM 41.0 °F 39.0 °F 93% 30.25 in 10.0 mi Calm Calm - N/A   Clear
10:54 PM 39.9 °F 37.0 °F 89% 30.25 in 10.0 mi Calm Calm - N/A   Clear
11:54 PM 41.0 °F 39.0 °F 93% 30.25 in 10.0 mi Calm Calm - N/A   Clear